Weather in Shidrovo

Russia / Arkhangel'skaya Oblast'     62°47′17″N   42°52′39″E
temp.,
°C
wind,
m/s
gust,
m/s
humid.,
%
clouds,
%
prec.,
mm/h
press.,
hPa
HPBL,
m
4 august, wed
wed400:00+14s312840 0.0 1004308
03:00+13s312870 0.0 1004342
06:00+14ssw411800 0.0 1004509
09:00+17wsw5967100 0.1 10061457
12:00+17sw4863100 0.1 10071395
15:00+20sw59445 0.1 10082101
18:00+20wsw59415 0.0 10092212
21:00+14sw39564 0.0 1010242
5 august, thu
thu500:00+10w28800 0.0 1013168
03:00+7wsw25910 0.0 1015104
06:00+10wsw28760 0.0 1016253
09:00+16w475111 0.0 10171277
12:00+19wnw463928 0.0 10172094
15:00+20wnw353793 0.0 10172261
18:00+17nw2552100 0.0 1018233
21:00+14wnw126057 0.0 101921
6 august, fri
fri600:00+13nne246697 0.0 1020110
03:00+10ne1272100 0.0 102019
06:00+12n136580 0.0 102190
09:00+17nne23427 0.0 1022815
12:00+20n223499 0.0 10212106
15:00+21n123396 0.0 10212310
18:00+19ene2344100 0.0 1021284
21:00+15e2557100 0.0 1022119
7 august, sat
sat700:00+14e286097 0.0 1023287
03:00+13e276595 0.0 1024250
06:00+13e28675 0.0 1025314
09:00+18e35441 0.0 1024980
12:00+21e34343 0.0 10242020
15:00+22e34325 0.0 10232397
18:00+21e254160 0.0 1023519
21:00+15e24628 0.0 102475
8 august, sun
sun800:00+11e287130 0.0 1024156
03:00+10e2875100 0.0 1025161
06:00+12e31065100 0.0 1025289
09:00+18ese4847100 0.0 1025739
12:00+20ese4638100 0.0 10241571
15:00+22se4634100 0.0 10231844
18:00+18se2750100 0.0 1023334
21:00+12sw2592100 0.3 1024186